SCR744 EGGD-LFOP

Flight info

Callsign SCR744
Flight time N/A
Altitude 34000
Route YORQI DCT SAM Y8 GWC N859 SITET DCT BAGEK DCT CAN
Aircraft C525/L-SDFGRWY/S

Departure

Time 2026-05-06 13:02
Airport Bristol Airport (EGGD)

Arrival

Time N/A
Airport Rouen Vallée de Seine Airport (LFOP)
Time Latitude Longitude Altitude Speed Heading
2026-05-06 12:46 51.37905 -2.70997 602 ft 0 kts 287°
2026-05-06 12:57 51.37906 -2.70997 602 ft 0 kts 287°
2026-05-06 12:58 51.37922 -2.71020 602 ft 10 kts 346°
2026-05-06 12:58 51.38011 -2.70970 601 ft 13 kts 13°
2026-05-06 12:58 51.38084 -2.70995 601 ft 12 kts 287°
2026-05-06 12:59 51.38134 -2.71131 600 ft 16 kts 278°
2026-05-06 12:59 51.38167 -2.71289 599 ft 15 kts 325°
2026-05-06 12:59 51.38252 -2.71375 599 ft 13 kts 326°
2026-05-06 12:59 51.38282 -2.71498 599 ft 14 kts 267°
2026-05-06 13:00 51.38276 -2.71697 600 ft 22 kts 267°
2026-05-06 13:00 51.38264 -2.72002 604 ft 32 kts 266°
2026-05-06 13:00 51.38250 -2.72403 610 ft 39 kts 266°
2026-05-06 13:00 51.38227 -2.72817 613 ft 35 kts 266°
2026-05-06 13:01 51.38217 -2.73206 607 ft 31 kts 266°
2026-05-06 13:01 51.38217 -2.73274 606 ft 8 kts 95°
2026-05-06 13:01 51.38223 -2.73026 611 ft 50 kts 86°
2026-05-06 13:01 51.38266 -2.72105 625 ft 109 kts 86°
2026-05-06 13:02 51.38229 -2.70763 843 ft 137 kts 93°
2026-05-06 13:02 51.38154 -2.69060 1236 ft 162 kts 87°
2026-05-06 13:02 51.38221 -2.67139 1727 ft 181 kts 83°
2026-05-06 13:02 51.38330 -2.65038 2318 ft 195 kts 84°
2026-05-06 13:03 51.38433 -2.62867 3118 ft 200 kts 83°
2026-05-06 13:03 51.38523 -2.60678 3909 ft 203 kts 84°
2026-05-06 13:03 51.38606 -2.58422 4678 ft 207 kts 84°
2026-05-06 13:03 51.38784 -2.56153 5399 ft 210 kts 68°
2026-05-06 13:04 51.39710 -2.54402 6197 ft 209 kts 34°
2026-05-06 13:04 51.40941 -2.53174 6938 ft 212 kts 27°
2026-05-06 13:04 51.42229 -2.52054 7667 ft 214 kts 26°
2026-05-06 13:04 51.43556 -2.50916 8401 ft 217 kts 26°
2026-05-06 13:05 51.44869 -2.49770 9103 ft 219 kts 27°
2026-05-06 13:05 51.46188 -2.48530 9762 ft 222 kts 28°
2026-05-06 13:05 51.47507 -2.47253 10408 ft 225 kts 29°
2026-05-06 13:05 51.48841 -2.45944 11042 ft 227 kts 29°
2026-05-06 13:06 51.50072 -2.44379 11625 ft 234 kts 51°
2026-05-06 13:06 51.50570 -2.41926 12245 ft 241 kts 86°
2026-05-06 13:06 51.50113 -2.39330 12824 ft 246 kts 117°
2026-05-06 13:06 51.49166 -2.37035 13389 ft 250 kts 125°
2026-05-06 13:07 51.48091 -2.34807 13966 ft 252 kts 128°
2026-05-06 13:07 51.46979 -2.32601 14538 ft 254 kts 129°
2026-05-06 13:07 51.45859 -2.30404 15083 ft 256 kts 129°
2026-05-06 13:07 51.44712 -2.28167 15612 ft 258 kts 129°
2026-05-06 13:08 51.43547 -2.25901 16142 ft 261 kts 129°
2026-05-06 13:08 51.42379 -2.23633 16661 ft 262 kts 129°
2026-05-06 13:08 51.41219 -2.21387 17149 ft 265 kts 130°
2026-05-06 13:08 51.40033 -2.19091 17653 ft 266 kts 130°
2026-05-06 13:09 51.38846 -2.16796 18114 ft 269 kts 130°
2026-05-06 13:09 51.37657 -2.14502 18576 ft 270 kts 130°
2026-05-06 13:09 51.36451 -2.12175 19001 ft 273 kts 130°
2026-05-06 13:09 51.35225 -2.09813 19444 ft 275 kts 130°
2026-05-06 13:10 51.34018 -2.07490 19877 ft 277 kts 130°
2026-05-06 13:10 51.32779 -2.05108 20301 ft 279 kts 130°
2026-05-06 13:10 51.31531 -2.02713 20703 ft 281 kts 130°
2026-05-06 13:10 51.30264 -2.00280 21096 ft 283 kts 130°
2026-05-06 13:11 51.29013 -1.97882 21494 ft 284 kts 130°
2026-05-06 13:11 51.27728 -1.95420 21897 ft 286 kts 130°
2026-05-06 13:11 51.26456 -1.92987 22288 ft 288 kts 130°
2026-05-06 13:11 51.25172 -1.90533 22667 ft 289 kts 131°
2026-05-06 13:12 51.23897 -1.88098 23040 ft 291 kts 131°
2026-05-06 13:12 51.22599 -1.85622 23394 ft 292 kts 131°
2026-05-06 13:12 51.21301 -1.83146 23764 ft 293 kts 131°
2026-05-06 13:12 51.19980 -1.80631 24112 ft 295 kts 131°
2026-05-06 13:13 51.18675 -1.78148 24452 ft 297 kts 131°
2026-05-06 13:13 51.17344 -1.75621 24801 ft 298 kts 131°
2026-05-06 13:13 51.16022 -1.73110 25129 ft 300 kts 131°
2026-05-06 13:13 51.14683 -1.70570 25466 ft 301 kts 130°
2026-05-06 13:14 51.13334 -1.68015 25772 ft 303 kts 131°
2026-05-06 13:14 51.11990 -1.65471 26075 ft 304 kts 130°
2026-05-06 13:14 51.10600 -1.62842 26382 ft 306 kts 131°
2026-05-06 13:14 51.09793 -1.61318 26574 ft 306 kts 131°